Weather History for Cando, ND

Change the Weather History Date:

Wednesday, October 17, 2012

  Actual Average (KDVL) Record (KDVL)
Temperature  
Mean Temperature 48 °F -  
Max Temperature 51 °F 50 °F 79 °F (1963)
Min Temperature 44 °F 32 °F 11 °F (1948)
Degree Days  
Heating Degree Days 18    
Moisture  
Dew Point 46 °F    
Average Humidity 98    
Maximum Humidity 100    
Minimum Humidity 93    
Precipitation  
Precipitation 0.25 in - - ()
Sea Level Pressure  
Sea Level Pressure 29.19 in    
Wind  
Wind Speed 15 mph (WNW)    
Max Wind Speed 26 mph    
Max Gust Speed 37 mph    
Visibility 7 miles    
Events Rain    
Averages and records for this station are not official NWS values.
T = Trace of Precipitation, MM = Missing Value Source: NWS Daily Summary

Daily Weather History Graph

Daily Weather History Graph

Search for Another Location

Airport:

Trip Planner

Search our weather history database for the weather conditions in past years. The results will help you decide how hot, cold, wet, or windy it might be!

Date:

Astronomy

Oct. 17, 2012 Rise Set
Actual Time 8:00 AM CDT 6:42 PM CDT
Civil Twilight 7:28 AM CDT 7:14 PM CDT
Nautical Twilight 6:52 AM CDT 7:50 PM CDT
Astronomical Twilight 6:16 AM CDT 8:27 PM CDT
Moon 10:52 AM CDT (10/17) 8:04 PM CDT (10/17)
Length of Visible Light 11h 45m
Length of Day
10h 42m
Waxing Crescent, 7% of the Moon is Illuminated
Oct 17
Waxing Crescent
Oct 21
First Quarter
Oct 29
Full
Nov 6
Last Quarter
Nov 13
New

Hourly Weather History & Observations

Time (CDT) Temp. Windchill Dew Point Humidity Pressure Visibility Wind Dir Wind Speed Gust Speed Precip Events Conditions
12:35 AM 51.8 °F - 51.8 °F 100% 29.21 in 10.0 mi WSW 8.1 mph - N/A   Overcast
12:55 AM 51.8 °F - 51.8 °F 100% 29.20 in 10.0 mi West 13.8 mph - N/A   Overcast
1:15 AM 51.8 °F - 51.8 °F 100% 29.20 in 10.0 mi WSW 11.5 mph - N/A   Overcast
1:35 AM 51.8 °F - 51.8 °F 100% 29.20 in 10.0 mi WSW 11.5 mph - N/A   Overcast
1:55 AM 51.8 °F - 51.8 °F 100% 29.19 in 6.0 mi WSW 10.4 mph - N/A   Overcast
2:15 AM 51.8 °F - 51.8 °F 100% 29.19 in 8.0 mi WSW 8.1 mph - N/A   Mostly Cloudy
2:35 AM 51.8 °F - 51.8 °F 100% 29.19 in 10.0 mi SW 8.1 mph - N/A   Overcast
2:55 AM 51.8 °F - 51.8 °F 100% 29.19 in 10.0 mi SW 8.1 mph - N/A   Overcast
3:15 AM 51.8 °F - 51.8 °F 100% 29.18 in 10.0 mi SW 8.1 mph - N/A   Mostly Cloudy
3:55 AM 51.8 °F - 51.8 °F 100% 29.18 in 10.0 mi WSW 9.2 mph - N/A   Mostly Cloudy
4:15 AM 51.8 °F - 51.8 °F 100% 29.17 in 10.0 mi WSW 10.4 mph - N/A   Overcast
4:35 AM 51.8 °F - 50.0 °F 94% 29.17 in 10.0 mi West 11.5 mph - N/A   Overcast
4:55 AM 50.0 °F - 50.0 °F 100% 29.18 in 10.0 mi WSW 9.2 mph - N/A   Overcast
5:15 AM 50.0 °F - 48.2 °F 94% 29.18 in 10.0 mi West 12.7 mph - N/A   Overcast
5:35 AM 48.2 °F - 46.4 °F 93% 29.18 in 10.0 mi West 12.7 mph 17.3 mph N/A   Overcast
5:55 AM 48.2 °F - 46.4 °F 93% 29.17 in 10.0 mi West 11.5 mph - N/A   Overcast
6:15 AM 46.4 °F 40.7 °F 46.4 °F 100% 29.18 in 10.0 mi West 12.7 mph - N/A   Overcast
6:35 AM 46.4 °F 40.4 °F 46.4 °F 100% 29.17 in 10.0 mi West 13.8 mph - N/A   Overcast
6:55 AM 46.4 °F 40.1 °F 44.6 °F 93% 29.17 in 10.0 mi West 15.0 mph - N/A   Overcast
7:15 AM 46.4 °F 40.7 °F 44.6 °F 93% 29.17 in 10.0 mi West 12.7 mph - N/A   Scattered Clouds
7:35 AM 46.4 °F 39.8 °F 44.6 °F 93% 29.16 in 10.0 mi West 16.1 mph - N/A   Mostly Cloudy
7:55 AM 46.4 °F 40.7 °F 44.6 °F 93% 29.16 in 10.0 mi West 12.7 mph - N/A   Overcast
8:15 AM 46.4 °F 40.4 °F 44.6 °F 93% 29.16 in 10.0 mi West 13.8 mph - N/A   Overcast
8:35 AM 44.6 °F 38.1 °F 44.6 °F 100% 29.16 in 10.0 mi West 13.8 mph - N/A   Overcast
8:55 AM 46.4 °F 40.4 °F 44.6 °F 93% 29.16 in 10.0 mi West 13.8 mph - N/A   Overcast
9:15 AM 46.4 °F 39.8 °F 44.6 °F 93% 29.16 in 10.0 mi West 16.1 mph 20.7 mph N/A   Mostly Cloudy
9:35 AM 46.4 °F 39.5 °F 46.4 °F 100% 29.16 in 10.0 mi West 17.3 mph 20.7 mph N/A   Mostly Cloudy
9:55 AM 46.4 °F 39.8 °F 46.4 °F 100% 29.16 in 10.0 mi WNW 16.1 mph - N/A   Overcast
10:15 AM 46.4 °F 40.4 °F 46.4 °F 100% 29.17 in 5.0 mi West 13.8 mph 19.6 mph N/A   Overcast
10:35 AM 48.2 °F - 48.2 °F 100% 29.16 in 3.0 mi WNW 17.3 mph 23.0 mph N/A Rain Light Rain
10:55 AM 48.2 °F - 48.2 °F 100% 29.16 in 3.0 mi WNW 16.1 mph 23.0 mph N/A Rain Light Rain
11:15 AM 48.2 °F - 48.2 °F 100% 29.16 in 3.0 mi WNW 16.1 mph - N/A Rain Light Rain
11:35 AM 48.2 °F - 48.2 °F 100% 29.16 in 3.0 mi WNW 19.6 mph 25.3 mph N/A   Overcast
11:55 AM 46.4 °F 39.2 °F 46.4 °F 100% 29.16 in 5.0 mi WNW 18.4 mph 23.0 mph N/A   Overcast
12:15 PM 46.4 °F 39.5 °F 46.4 °F 100% 29.16 in 3.0 mi WNW 17.3 mph 25.3 mph N/A Rain Light Rain
12:35 PM 46.4 °F 39.8 °F 46.4 °F 100% 29.17 in 9.0 mi West 16.1 mph - N/A   Overcast
12:55 PM 46.4 °F 39.8 °F 46.4 °F 100% 29.17 in 10.0 mi WNW 16.1 mph 21.9 mph N/A   Overcast
1:15 PM 46.4 °F 39.5 °F 46.4 °F 100% 29.17 in 8.0 mi WNW 17.3 mph - N/A   Overcast
1:35 PM 46.4 °F 39.5 °F 46.4 °F 100% 29.17 in 5.0 mi WNW 17.3 mph - N/A   Overcast
1:55 PM 44.6 °F 36.6 °F 44.6 °F 100% 29.17 in 5.0 mi WNW 19.6 mph 23.0 mph N/A   Overcast
2:15 PM 44.6 °F 37.2 °F 44.6 °F 100% 29.18 in 5.0 mi WNW 17.3 mph - N/A   Overcast
2:35 PM 44.6 °F 36.6 °F 44.6 °F 100% 29.18 in 5.0 mi WNW 19.6 mph 24.2 mph N/A   Overcast
2:55 PM 44.6 °F 36.6 °F 44.6 °F 100% 29.18 in 5.0 mi WNW 19.6 mph 24.2 mph N/A   Overcast
3:15 PM 44.6 °F 36.9 °F 44.6 °F 100% 29.18 in 5.0 mi WNW 18.4 mph 24.2 mph N/A Rain Light Rain
3:35 PM 44.6 °F 36.1 °F 44.6 °F 100% 29.19 in 5.0 mi WNW 21.9 mph 26.5 mph N/A   Mostly Cloudy
3:55 PM 44.6 °F 36.1 °F 44.6 °F 100% 29.19 in 5.0 mi NW 21.9 mph 29.9 mph N/A   Mostly Cloudy
4:15 PM 44.6 °F 35.3 °F 44.6 °F 100% 29.19 in 7.0 mi NW 26.5 mph 32.2 mph N/A   Mostly Cloudy
4:35 PM 44.6 °F 36.1 °F 44.6 °F 100% 29.19 in 5.0 mi WNW 21.9 mph 32.2 mph N/A Rain Light Rain
4:55 PM 44.6 °F 35.5 °F 44.6 °F 100% 29.19 in 5.0 mi NW 25.3 mph 32.2 mph N/A Rain Light Rain
5:15 PM 44.6 °F 35.3 °F 44.6 °F 100% 29.19 in 5.0 mi WNW 26.5 mph 33.4 mph N/A Rain Light Rain
5:35 PM 44.6 °F 35.7 °F 42.8 °F 93% 29.20 in 7.0 mi WNW 24.2 mph 36.8 mph N/A Rain Light Rain
5:55 PM 44.6 °F 35.7 °F 42.8 °F 93% 29.20 in 7.0 mi WNW 24.2 mph 33.4 mph N/A Rain Light Rain
6:15 PM 44.6 °F 35.9 °F 42.8 °F 93% 29.20 in 5.0 mi WNW 23.0 mph 33.4 mph N/A Rain Light Rain
6:35 PM 44.6 °F 35.7 °F 42.8 °F 93% 29.20 in 5.0 mi NW 24.2 mph 33.4 mph N/A Rain Light Rain
6:55 PM 44.6 °F 35.7 °F 42.8 °F 93% 29.21 in 6.0 mi WNW 24.2 mph 31.1 mph 0.01 in Rain Light Rain
7:15 PM 44.6 °F 35.5 °F 44.6 °F 100% 29.21 in 5.0 mi WNW 25.3 mph 33.4 mph N/A Rain Light Rain
7:35 PM 44.6 °F 35.7 °F 44.6 °F 100% 29.21 in 5.0 mi NW 24.2 mph 33.4 mph 0.01 in Rain Light Rain
7:55 PM 44.6 °F 36.6 °F 44.6 °F 100% 29.22 in 4.0 mi NW 19.6 mph 28.8 mph 0.03 in Rain Light Rain
8:15 PM 44.6 °F 35.7 °F 44.6 °F 100% 29.22 in 4.0 mi NW 24.2 mph 29.9 mph 0.02 in Rain Light Rain
8:35 PM 44.6 °F 35.3 °F 44.6 °F 100% 29.21 in 4.0 mi NW 26.5 mph 31.1 mph 0.05 in Rain Light Rain
8:55 PM 44.6 °F 36.9 °F 44.6 °F 100% 29.23 in 3.0 mi NW 18.4 mph 29.9 mph 0.08 in Rain Light Rain
9:15 PM 44.6 °F 36.4 °F 44.6 °F 100% 29.22 in 3.0 mi NW 20.7 mph 31.1 mph 0.02 in Rain Light Rain
9:35 PM 44.6 °F 36.4 °F 44.6 °F 100% 29.23 in 4.0 mi NW 20.7 mph 32.2 mph 0.05 in Rain Light Rain
9:55 PM 44.6 °F 35.9 °F 44.6 °F 100% 29.23 in 4.0 mi NW 23.0 mph 33.4 mph 0.08 in Rain Light Rain
10:15 PM 44.6 °F 35.7 °F 44.6 °F 100% 29.23 in 5.0 mi NW 24.2 mph 34.5 mph N/A Rain Light Rain
10:35 PM 44.6 °F 35.3 °F 42.8 °F 93% 29.23 in 5.0 mi NW 26.5 mph 31.1 mph 0.01 in Rain Light Rain
10:55 PM 44.6 °F 35.5 °F 42.8 °F 93% 29.24 in 5.0 mi NW 25.3 mph 33.4 mph 0.03 in Rain Light Rain
11:15 PM 44.6 °F 35.7 °F 42.8 °F 93% 29.24 in 5.0 mi NW 24.2 mph 29.9 mph N/A Rain Light Rain
11:35 PM 44.6 °F 35.9 °F 42.8 °F 93% 29.23 in 5.0 mi NW 23.0 mph 31.1 mph 0.01 in Rain Light Rain
11:55 PM 44.6 °F 35.9 °F 42.8 °F 93% 29.23 in 6.0 mi NW 23.0 mph 32.2 mph 0.02 in Rain Light Rain